| time (UTC) | temp C | wind direction | speed KPH | gust KPH | rain 1hr cm | rain 24hr cm | rain mn cm | humidity % | barometer mb |
| 20260502123023 | 7 | 59 | 6.4 | 8.0 | 0.00 | 0.00 | 0.00 | 46 | 1021.7 |
| 20260502122057 | 7 | 46 | 4.8 | 6.4 | 0.00 | 0.00 | 0.00 | 46 | 1021.9 |
| 20260502121032 | 7 | 38 | 4.8 | 6.4 | 0.00 | 0.00 | 0.00 | 45 | 1021.8 |
| 20260502115019 | 7 | 50 | 4.8 | 6.4 | 0.00 | 0.00 | 0.00 | 44 | 1021.7 |
| 20260502114033 | 7 | 53 | 3.2 | 4.8 | 0.00 | 0.00 | 0.00 | 43 | 1021.7 |
| 20260502113027 | 7 | 39 | 3.2 | 4.8 | 0.00 | 0.00 | 0.00 | 42 | 1021.7 |
| 20260502112022 | 8 | 40 | 3.2 | 4.8 | 0.00 | 0.00 | 0.00 | 41 | 1021.6 |
| 20260502111015 | 8 | 45 | 6.4 | 8.0 | 0.00 | 0.00 | 0.00 | 41 | 1021.5 |
| 20260502110029 | 7 | 45 | 6.4 | 8.0 | 0.00 | 0.00 | 0.00 | 44 | 1021.7 |
| 20260502105023 | 7 | 47 | 6.4 | 6.4 | 0.00 | 0.00 | 0.00 | 42 | 1021.7 |
| 20260502104016 | 8 | 53 | 4.8 | 6.4 | 0.00 | 0.00 | 0.00 | 40 | 1021.7 |
| 20260502103029 | 8 | 47 | 4.8 | 6.4 | 0.00 | 0.00 | 0.00 | 40 | 1021.7 |
| 20260502102023 | 8 | 63 | 4.8 | 6.4 | 0.00 | 0.00 | 0.00 | 39 | 1021.6 |
| 20260502101016 | 7 | 50 | 3.2 | 4.8 | 0.00 | 0.00 | 0.00 | 43 | 1021.4 |
| 20260502091058 | 8 | 65 | 4.8 | 8.0 | 0.00 | 0.00 | 0.00 | 45 | 1021.5 |
| 20260502071022 | 9 | 82 | 3.2 | 4.8 | 0.00 | 0.00 | 0.00 | 45 | 1021.5 |
| 20260502070112 | 9 | 48 | 4.8 | 6.4 | 0.00 | 0.00 | 0.00 | 42 | 1021.5 |
| 20260502065103 | 9 | 41 | 6.4 | 8.0 | 0.00 | 0.00 | 0.00 | 42 | 1021.5 |
| 20260502064034 | 9 | 45 | 4.8 | 6.4 | 0.00 | 0.00 | 0.00 | 43 | 1021.5 |
| 20260502063024 | 9 | 39 | 6.4 | 6.4 | 0.00 | 0.00 | 0.00 | 43 | 1021.5 |
| 20260502062018 | 10 | 36 | 4.8 | 6.4 | 0.00 | 0.00 | 0.00 | 41 | 1021.6 |
| 20260502061033 | 9 | 42 | 4.8 | 6.4 | 0.00 | 0.00 | 0.00 | 41 | 1021.5 |
| 20260502055033 | 10 | 53 | 4.8 | 6.4 | 0.00 | 0.00 | 0.00 | 42 | 1021.5 |
| 20260502054023 | 10 | 55 | 4.8 | 6.4 | 0.00 | 0.00 | 0.00 | 43 | 1021.4 |
| 20260502053033 | 10 | 50 | 4.8 | 6.4 | 0.00 | 0.00 | 0.00 | 44 | 1021.4 |
| 20260502052023 | 10 | 44 | 4.8 | 6.4 | 0.00 | 0.00 | 0.00 | 45 | 1021.4 |
| 20260502051055 | 10 | 61 | 4.8 | 6.4 | 0.00 | 0.00 | 0.00 | 48 | 1021.4 |
| 20260502050030 | 10 | 52 | 3.2 | 4.8 | 0.00 | 0.00 | 0.00 | 47 | 1021.4 |
| 20260502045104 | 10 | 72 | 3.2 | 4.8 | 0.00 | 0.00 | 0.00 | 47 | 1021.3 |
| 20260502044018 | 10 | 54 | 4.8 | 6.4 | 0.00 | 0.00 | 0.00 | 48 | 1021.4 |
| 20260502043033 | 10 | 62 | 4.8 | 6.4 | 0.00 | 0.00 | 0.00 | 47 | 1021.2 |
| 20260502042027 | 10 | 55 | 4.8 | 4.8 | 0.00 | 0.00 | 0.00 | 47 | 1021.3 |
| 20260502041021 | 10 | 57 | 4.8 | 4.8 | 0.00 | 0.00 | 0.00 | 47 | 1021.3 |
| 20260502040035 | 11 | 65 | 4.8 | 4.8 | 0.00 | 0.00 | 0.00 | 47 | 1021.2 |
| 20260502035029 | 11 | 73 | 3.2 | 3.2 | 0.00 | 0.00 | 0.00 | 47 | 1021.1 |
| 20260502034022 | 11 | 67 | 3.2 | 4.8 | 0.00 | 0.00 | 0.00 | 44 | 1021.0 |
| 20260502033056 | 11 | 73 | 4.8 | 4.8 | 0.00 | 0.00 | 0.00 | 46 | 1020.8 |
| 20260502032030 | 12 | 70 | 4.8 | 4.8 | 0.00 | 0.00 | 0.00 | 45 | 1020.6 |
| 20260502031024 | 12 | 77 | 3.2 | 4.8 | 0.00 | 0.00 | 0.00 | 44 | 1020.6 |
| 20260502030018 | 13 | 61 | 4.8 | 6.4 | 0.00 | 0.00 | 0.00 | 42 | 1020.4 |
| 20260502025032 | 13 | 59 | 3.2 | 4.8 | 0.00 | 0.00 | 0.00 | 41 | 1020.2 |
| 20260502024026 | 14 | 45 | 1.6 | 3.2 | 0.00 | 0.00 | 0.00 | 39 | 1020.2 |
| 20260502023100 | 15 | 35 | 3.2 | 3.2 | 0.00 | 0.00 | 0.00 | 38 | 1020.1 |
| 20260502022115 | 16 | 10 | 1.6 | 3.2 | 0.00 | 0.00 | 0.00 | 35 | 1020.1 |
| 20260502021108 | 16 | 3 | 3.2 | 4.8 | 0.00 | 0.00 | 0.00 | 33 | 1020.0 |
| 20260502020021 | 17 | 349 | 3.2 | 8.0 | 0.00 | 0.00 | 0.00 | 33 | 1019.9 |
| 20260502015113 | 17 | 359 | 3.2 | 4.8 | 0.00 | 0.00 | 0.00 | 32 | 1019.8 |
| 20260502014024 | 17 | 327 | 3.2 | 8.0 | 0.00 | 0.00 | 0.00 | 32 | 1019.7 |
| 20260502013016 | 17 | 350 | 4.8 | 8.0 | 0.00 | 0.00 | 0.00 | 30 | 1019.7 |
| 20260502012030 | 18 | 313 | 4.8 | 12.9 | 0.00 | 0.00 | 0.00 | 31 | 1019.7 |
| 20260502011024 | 18 | 349 | 4.8 | 8.0 | 0.00 | 0.00 | 0.00 | 30 | 1019.7 |
| 20260502010019 | 18 | 327 | 4.8 | 9.7 | 0.00 | 0.00 | 0.00 | 30 | 1019.7 |
| 20260502005033 | 18 | 311 | 4.8 | 14.5 | 0.00 | 0.00 | 0.00 | 30 | 1019.7 |
| 20260502004027 | 18 | 11 | 3.2 | 8.0 | 0.00 | 0.00 | 0.00 | 30 | 1019.7 |
| 20260502003021 | 18 | 333 | 4.8 | 9.7 | 0.00 | 0.00 | 0.00 | 30 | 1019.7 |
| 20260502002015 | 18 | 344 | 6.4 | 9.7 | 0.00 | 0.00 | 0.00 | 29 | 1019.7 |
| 20260502001029 | 18 | 331 | 4.8 | 11.3 | 0.00 | 0.00 | 0.00 | 30 | 1019.8 |
| 20260502000023 | 18 | 323 | 4.8 | 14.5 | 0.00 | 0.00 | 0.00 | 30 | 1019.8 |
| 20260501235018 | 18 | 322 | 4.8 | 14.5 | 0.00 | 0.00 | 0.00 | 30 | 1019.9 |
| 20260501234032 | 17 | 335 | 4.8 | 9.7 | 0.00 | 0.00 | 0.00 | 30 | 1019.9 |
| 20260501233106 | 18 | 297 | 6.4 | 19.3 | 0.00 | 0.00 | 0.00 | 30 | 1019.8 |
| 20260501232019 | 18 | 355 | 4.8 | 8.0 | 0.00 | 0.00 | 0.00 | 29 | 1019.9 |
| 20260501231033 | 17 | 354 | 6.4 | 16.1 | 0.00 | 0.00 | 0.00 | 29 | 1019.9 |
| 20260501230028 | 17 | 352 | 6.4 | 9.7 | 0.00 | 0.00 | 0.00 | 29 | 1020.0 |
| 20260501225021 | 17 | 349 | 4.8 | 14.5 | 0.00 | 0.00 | 0.00 | 29 | 1020.1 |
| 20260501224015 | 18 | 321 | 4.8 | 11.3 | 0.00 | 0.00 | 0.00 | 29 | 1020.2 |
| 20260501223109 | 17 | 291 | 6.4 | 17.7 | 0.00 | 0.00 | 0.00 | 29 | 1020.3 |
| 20260501222024 | 17 | 292 | 8.0 | 29.0 | 0.00 | 0.00 | 0.00 | 29 | 1020.2 |
| 20260501221018 | 17 | 314 | 6.4 | 16.1 | 0.00 | 0.00 | 0.00 | 28 | 1020.4 |
| 20260501220032 | 17 | 253 | 12.9 | 25.7 | 0.00 | 0.00 | 0.00 | 29 | 1020.3 |
| 20260501215026 | 17 | 284 | 8.0 | 22.5 | 0.00 | 0.00 | 0.00 | 28 | 1020.4 |
| 20260501214020 | 17 | 281 | 8.0 | 20.9 | 0.00 | 0.00 | 0.00 | 28 | 1020.5 |
| 20260501213034 | 18 | 253 | 6.4 | 14.5 | 0.00 | 0.00 | 0.00 | 27 | 1020.6 |
| 20260501212028 | 17 | 284 | 6.4 | 19.3 | 0.00 | 0.00 | 0.00 | 28 | 1020.7 |
| 20260501211022 | 17 | 317 | 3.2 | 8.0 | 0.00 | 0.00 | 0.00 | 27 | 1020.7 |
| 20260501210016 | 17 | 261 | 8.0 | 19.3 | 0.00 | 0.00 | 0.00 | 28 | 1020.8 |
| 20260501205111 | 17 | 241 | 9.7 | 19.3 | 0.00 | 0.00 | 0.00 | 27 | 1020.8 |
| 20260501204026 | 17 | 269 | 8.0 | 16.1 | 0.00 | 0.00 | 0.00 | 25 | 1020.9 |
| 20260501203019 | 17 | 275 | 9.7 | 22.5 | 0.00 | 0.00 | 0.00 | 25 | 1020.8 |
| 20260501202034 | 16 | 298 | 9.7 | 27.4 | 0.00 | 0.00 | 0.00 | 25 | 1020.8 |
| 20260501201028 | 16 | 237 | 6.4 | 12.9 | 0.00 | 0.00 | 0.00 | 25 | 1020.7 |
| 20260501200022 | 17 | 294 | 4.8 | 16.1 | 0.00 | 0.00 | 0.00 | 25 | 1020.8 |
| 20260501195016 | 17 | 242 | 4.8 | 9.7 | 0.00 | 0.00 | 0.00 | 25 | 1020.8 |
| 20260501194031 | 16 | 282 | 4.8 | 11.3 | 0.00 | 0.00 | 0.00 | 26 | 1020.8 |
| 20260501193106 | 16 | 290 | 9.7 | 20.9 | 0.00 | 0.00 | 0.00 | 25 | 1020.9 |
| 20260501192019 | 16 | 275 | 8.0 | 22.5 | 0.00 | 0.00 | 0.00 | 26 | 1021.1 |
| 20260501191034 | 16 | 270 | 4.8 | 19.3 | 0.00 | 0.00 | 0.00 | 25 | 1021.1 |
| 20260501190029 | 16 | 304 | 6.4 | 22.5 | 0.00 | 0.00 | 0.00 | 24 | 1021.3 |
| 20260501185023 | 16 | 269 | 6.4 | 16.1 | 0.00 | 0.00 | 0.00 | 24 | 1021.3 |
| 20260501184018 | 16 | 237 | 3.2 | 12.9 | 0.00 | 0.00 | 0.00 | 25 | 1021.4 |
| 20260501183032 | 15 | 262 | 6.4 | 11.3 | 0.00 | 0.00 | 0.00 | 25 | 1021.5 |
| 20260501182107 | 15 | 210 | 3.2 | 9.7 | 0.00 | 0.00 | 0.00 | 25 | 1021.5 |
| 20260501181022 | 15 | 192 | 3.2 | 11.3 | 0.00 | 0.00 | 0.00 | 26 | 1021.7 |
| 20260501180056 | 15 | 181 | 6.4 | 11.3 | 0.00 | 0.00 | 0.00 | 25 | 1021.8 |
| 20260501175030 | 15 | 121 | 6.4 | 16.1 | 0.00 | 0.00 | 0.00 | 26 | 1021.8 |
| 20260501174025 | 15 | 113 | 6.4 | 17.7 | 0.00 | 0.00 | 0.00 | 25 | 1021.9 |
| 20260501173019 | 15 | 38 | 6.4 | 12.9 | 0.00 | 0.00 | 0.00 | 26 | 1021.9 |
| 20260501172053 | 15 | 116 | 6.4 | 12.9 | 0.00 | 0.00 | 0.00 | 25 | 1021.9 |
| 20260501171028 | 15 | 36 | 6.4 | 16.1 | 0.00 | 0.00 | 0.00 | 25 | 1022.1 |
| 20260501165017 | 14 | 18 | 8.0 | 25.7 | 0.00 | 0.00 | 0.00 | 26 | 1022.0 |
| 20260501164031 | 14 | 79 | 9.7 | 20.9 | 0.00 | 0.00 | 0.00 | 26 | 1021.9 |
| 20260501163025 | 13 | 90 | 9.7 | 16.1 | 0.00 | 0.00 | 0.00 | 26 | 1021.9 |
| 20260501162019 | 13 | 67 | 6.4 | 16.1 | 0.00 | 0.00 | 0.00 | 27 | 1021.9 |
| 20260501161034 | 13 | 54 | 9.7 | 20.9 | 0.00 | 0.00 | 0.00 | 28 | 1021.8 |
| 20260501160028 | 13 | 94 | 9.7 | 17.7 | 0.00 | 0.00 | 0.00 | 31 | 1021.8 |
| 20260501155122 | 13 | 99 | 8.0 | 17.7 | 0.00 | 0.00 | 0.00 | 34 | 1021.7 |
| 20260501154016 | 12 | 112 | 9.7 | 24.1 | 0.00 | 0.00 | 0.00 | 35 | 1021.8 |
| 20260501153029 | 12 | 90 | 4.8 | 11.3 | 0.00 | 0.00 | 0.00 | 35 | 1021.7 |
| 20260501152023 | 12 | 101 | 12.9 | 27.4 | 0.00 | 0.00 | 0.00 | 35 | 1021.8 |
| 20260501151017 | 12 | 88 | 11.3 | 27.4 | 0.00 | 0.00 | 0.00 | 35 | 1021.7 |